Location: Nairn
(57.5833°N, 3.8667°W)
Time: 12:23:44
(UTC+00:00)

Altair - Pass Details

Date: 09 December 2023
Orbit: 1501 x 1682 km, 47.2° (Epoch: 02 March)

Event Time Altitude Azimuth Distance (km) Brightness Sun altitude
Rises 05:28:06 0° 173° (S) 4,854 10.3 -24.3°
Reaches altitude 10° 05:34:16 10° 145° (SE) 3,828 10.1 -23.5°
Maximum altitude 05:37:09 12° 127° (SE) 3,676 10.3 -23.1°
Drops below altitude 10° 05:40:01 10° 109° (ESE) 3,789 10.6 -22.7°
Sets 05:45:58 0° 81° (E) 4,732 11.3 -21.9°
